Time,TemperatureF,DewpointF,PressureIn,WindDirection,WindDirectionDegrees,WindSpeedMPH,WindSpeedGustMPH,Humidity,HourlyPrecipIn,Conditions,Clouds,dailyrainin,SoftwareType,DateUTC
2013-09-11 01:00:00,54.0,-99.9,-100.00,East,96,3.0,13.0,-999,0.00,,,-99.99,,2013-09-11 07:00:00,
2013-09-11 01:42:00,54.0,-99.9,-100.00,East,96,3.0,13.0,-999,0.00,,,-99.99,,2013-09-11 07:42:00,
2013-09-11 01:53:00,54.0,-99.9,-100.00,East,96,3.0,13.0,-999,0.00,,,-99.99,,2013-09-11 07:53:00,
2013-09-11 02:00:00,52.0,-99.9,-100.00,NNE,31,2.0,10.0,-999,0.00,,,-99.99,,2013-09-11 08:00:00,
2013-09-11 02:42:00,52.0,-99.9,-100.00,NNE,31,2.0,10.0,-999,0.00,,,-99.99,,2013-09-11 08:42:00,
2013-09-11 02:52:00,52.0,-99.9,-100.00,NNE,31,2.0,10.0,-999,0.00,,,-99.99,,2013-09-11 08:52:00,
2013-09-11 03:00:00,53.0,-99.9,-100.00,SE,145,2.0,8.0,-999,0.00,,,-99.99,,2013-09-11 09:00:00,
2013-09-11 03:43:00,53.0,-99.9,-100.00,SE,145,2.0,8.0,-999,0.00,,,-99.99,,2013-09-11 09:43:00,
2013-09-11 03:53:00,53.0,-99.9,-100.00,SE,145,2.0,8.0,-999,0.00,,,-99.99,,2013-09-11 09:53:00,
2013-09-11 04:00:00,52.0,-99.9,-100.00,SE,135,2.0,10.0,-999,0.00,,,-99.99,,2013-09-11 10:00:00,
2013-09-11 04:43:00,52.0,-99.9,-100.00,SE,135,2.0,10.0,-999,0.00,,,-99.99,,2013-09-11 10:43:00,
2013-09-11 04:53:00,52.0,-99.9,-100.00,SE,135,2.0,10.0,-999,0.00,,,-99.99,,2013-09-11 10:53:00,
2013-09-11 05:00:00,52.0,-99.9,-100.00,ESE,114,2.0,8.0,-999,0.00,,,-99.99,,2013-09-11 11:00:00,
2013-09-11 05:42:00,52.0,-99.9,-100.00,ESE,114,2.0,8.0,-999,0.00,,,-99.99,,2013-09-11 11:42:00,
2013-09-11 05:52:00,52.0,-99.9,-100.00,ESE,114,2.0,8.0,-999,0.00,,,-99.99,,2013-09-11 11:52:00,
2013-09-11 06:00:00,52.0,-99.9,-100.00,NE,53,8.0,20.0,-999,0.00,,,-99.99,,2013-09-11 12:00:00,
2013-09-11 06:42:00,52.0,-99.9,-100.00,NE,53,8.0,20.0,-999,0.00,,,-99.99,,2013-09-11 12:42:00,
2013-09-11 06:52:00,52.0,-99.9,-100.00,NE,53,8.0,20.0,-999,0.00,,,-99.99,,2013-09-11 12:52:00,
2013-09-11 07:00:00,50.0,-99.9,-100.00,NE,54,3.0,14.0,-999,0.00,,,-99.99,,2013-09-11 13:00:00,
2013-09-11 07:42:00,50.0,-99.9,-100.00,NE,54,3.0,14.0,-999,0.00,,,-99.99,,2013-09-11 13:42:00,
2013-09-11 07:53:00,50.0,-99.9,-100.00,NE,54,3.0,14.0,-999,0.00,,,-99.99,,2013-09-11 13:53:00,
2013-09-11 08:00:00,50.0,-99.9,-100.00,ENE,59,7.0,18.0,-999,0.00,,,-99.99,,2013-09-11 14:00:00,
2013-09-11 08:42:00,50.0,-99.9,-100.00,ENE,59,7.0,18.0,-999,0.00,,,-99.99,,2013-09-11 14:42:00,
2013-09-11 08:52:00,50.0,-99.9,-100.00,ENE,59,7.0,18.0,-999,0.00,,,-99.99,,2013-09-11 14:52:00,
2013-09-11 09:00:00,52.0,-99.9,-100.00,NE,55,6.0,20.0,-999,0.00,,,-99.99,,2013-09-11 15:00:00,
2013-09-11 09:43:00,52.0,-99.9,-100.00,NE,55,6.0,20.0,-999,0.00,,,-99.99,,2013-09-11 15:43:00,
2013-09-11 09:54:00,52.0,-99.9,-100.00,NE,55,6.0,20.0,-999,0.00,,,-99.99,,2013-09-11 15:54:00,
2013-09-11 10:00:00,55.0,-99.9,-100.00,NE,53,6.0,23.0,-999,0.00,,,-99.99,,2013-09-11 16:00:00,
2013-09-11 10:43:00,55.0,-99.9,-100.00,NE,53,6.0,23.0,-999,0.00,,,-99.99,,2013-09-11 16:43:00,
2013-09-11 10:53:00,55.0,-99.9,-100.00,NE,53,6.0,23.0,-999,0.00,,,-99.99,,2013-09-11 16:53:00,
2013-09-11 11:00:00,55.0,-99.9,-100.00,NE,56,8.0,20.0,-999,0.00,,,-99.99,,2013-09-11 17:00:00,
2013-09-11 11:43:00,55.0,-99.9,-100.00,NE,56,8.0,20.0,-999,0.00,,,-99.99,,2013-09-11 17:43:00,
2013-09-11 11:52:00,55.0,-99.9,-100.00,NE,56,8.0,20.0,-999,0.00,,,-99.99,,2013-09-11 17:52:00,
2013-09-11 12:00:00,56.0,-99.9,-100.00,ENE,61,7.0,22.0,-999,0.00,,,-99.99,,2013-09-11 18:00:00,
2013-09-11 12:42:00,56.0,-99.9,-100.00,ENE,61,7.0,22.0,-999,0.00,,,-99.99,,2013-09-11 18:42:00,
2013-09-11 12:52:00,56.0,-99.9,-100.00,ENE,61,7.0,22.0,-999,0.00,,,-99.99,,2013-09-11 18:52:00,
2013-09-11 13:00:00,58.0,-99.9,-100.00,NE,50,6.0,18.0,-999,0.00,,,-99.99,,2013-09-11 19:00:00,
2013-09-11 13:43:00,58.0,-99.9,-100.00,NE,50,6.0,18.0,-999,0.00,,,-99.99,,2013-09-11 19:43:00,
2013-09-11 13:53:00,58.0,-99.9,-100.00,NE,50,6.0,18.0,-999,0.00,,,-99.99,,2013-09-11 19:53:00,
2013-09-11 14:00:00,61.0,-99.9,-100.00,NE,49,7.0,22.0,-999,0.00,,,-99.99,,2013-09-11 20:00:00,
2013-09-11 14:42:00,61.0,-99.9,-100.00,NE,49,7.0,22.0,-999,0.00,,,-99.99,,2013-09-11 20:42:00,
2013-09-11 14:52:00,61.0,-99.9,-100.00,NE,49,7.0,22.0,-999,0.00,,,-99.99,,2013-09-11 20:52:00,
2013-09-11 15:00:00,61.0,-99.9,-100.00,ENE,60,7.0,20.0,-999,0.00,,,-99.99,,2013-09-11 21:00:00,
2013-09-11 15:44:00,61.0,-99.9,-100.00,ENE,60,7.0,20.0,-999,0.00,,,-99.99,,2013-09-11 21:44:00,
2013-09-11 15:55:00,61.0,-99.9,-100.00,ENE,60,7.0,20.0,-999,0.00,,,-99.99,,2013-09-11 21:55:00,
2013-09-11 16:00:00,63.0,-99.9,-100.00,ENE,60,8.0,19.0,-999,0.00,,,-99.99,,2013-09-11 22:00:00,
2013-09-11 16:43:00,63.0,-99.9,-100.00,ENE,60,8.0,19.0,-999,0.00,,,-99.99,,2013-09-11 22:43:00,
2013-09-11 16:54:00,63.0,-99.9,-100.00,ENE,60,8.0,19.0,-999,0.00,,,-99.99,,2013-09-11 22:54:00,
2013-09-11 17:00:00,62.0,-99.9,-100.00,ENE,58,6.0,17.0,-999,0.00,,,-99.99,,2013-09-11 23:00:00,
2013-09-11 17:42:00,62.0,-99.9,-100.00,ENE,58,6.0,17.0,-999,0.00,,,-99.99,,2013-09-11 23:42:00,
2013-09-11 17:54:00,62.0,-99.9,-100.00,ENE,58,6.0,17.0,-999,0.00,,,-99.99,,2013-09-11 23:54:00,
2013-09-11 18:00:00,62.0,-99.9,-100.00,ENE,74,4.0,14.0,-999,0.00,,,-99.99,,2013-09-12 00:00:00,
2013-09-11 18:42:00,62.0,-99.9,-100.00,ENE,74,4.0,14.0,-999,0.00,,,-99.99,,2013-09-12 00:42:00,
2013-09-11 18:52:00,62.0,-99.9,-100.00,ENE,74,4.0,14.0,-999,0.00,,,-99.99,,2013-09-12 00:52:00,
2013-09-11 19:00:00,58.0,-99.9,-100.00,ENE,63,7.0,16.0,-999,0.00,,,-99.99,,2013-09-12 01:00:00,
2013-09-11 19:42:00,58.0,-99.9,-100.00,ENE,63,7.0,16.0,-999,0.00,,,-99.99,,2013-09-12 01:42:00,
2013-09-11 19:52:00,58.0,-99.9,-100.00,ENE,63,7.0,16.0,-999,0.00,,,-99.99,,2013-09-12 01:52:00,
2013-09-11 20:00:00,55.0,-99.9,-100.00,ENE,63,6.0,15.0,-999,0.00,,,-99.99,,2013-09-12 02:00:00,
2013-09-11 20:52:00,55.0,-99.9,-100.00,ENE,63,6.0,15.0,-999,0.00,,,-99.99,,2013-09-12 02:52:00,
2013-09-11 21:00:00,54.0,-99.9,-100.00,ENE,77,5.0,17.0,-999,0.00,,,-99.99,,2013-09-12 03:00:00,
2013-09-11 21:45:00,54.0,-99.9,-100.00,ENE,77,5.0,17.0,-999,0.00,,,-99.99,,2013-09-12 03:45:00,
2013-09-11 21:55:00,54.0,-99.9,-100.00,ENE,77,5.0,17.0,-999,0.00,,,-99.99,,2013-09-12 03:55:00,
2013-09-11 22:00:00,53.0,-99.9,-100.00,ESE,113,4.0,10.0,-999,0.00,,,-99.99,,2013-09-12 04:00:00,
2013-09-11 22:44:00,53.0,-99.9,-100.00,ESE,113,4.0,10.0,-999,0.00,,,-99.99,,2013-09-12 04:44:00,
2013-09-11 22:54:00,53.0,-99.9,-100.00,ESE,113,4.0,10.0,-999,0.00,,,-99.99,,2013-09-12 04:54:00,
2013-09-11 23:00:00,51.0,-99.9,-100.00,East,83,2.0,7.0,-999,0.00,,,-99.99,,2013-09-12 05:00:00,
2013-09-11 23:43:00,51.0,-99.9,-100.00,East,83,2.0,7.0,-999,0.00,,,-99.99,,2013-09-12 05:43:00,
2013-09-11 23:53:00,51.0,-99.9,-100.00,East,83,2.0,7.0,-999,0.00,,,-99.99,,2013-09-12 05:53:00,